N626PC RPVM-RPVB

Flight info

Callsign N626PC
Flight time 0h 33m
Altitude 8000
Route PARA1Q PARAO W6A KADSO KADS1
Aircraft AEST/L-SDFGR/C

Departure

Time 2026-05-06 21:02
Airport Mactan Cebu International Airport (RPVM)

Arrival

Time 2026-05-06 21:36
Airport Bacolod-Silay International Airport (RPVB)
Time Latitude Longitude Altitude Speed Heading
2026-05-06 20:48 10.29795 123.97335 33 ft 0 kts 47°
2026-05-06 20:56 10.29800 123.97339 33 ft 4 kts 23°
2026-05-06 20:57 10.29826 123.97336 33 ft 5 kts 28°
2026-05-06 20:57 10.29861 123.97373 33 ft 6 kts 43°
2026-05-06 20:57 10.29899 123.97409 33 ft 4 kts 43°
2026-05-06 20:57 10.29943 123.97453 33 ft 8 kts 46°
2026-05-06 20:58 10.29957 123.97467 33 ft 6 kts 40°
2026-05-06 20:58 10.29994 123.97446 32 ft 3 kts 352°
2026-05-06 20:58 10.30004 123.97450 32 ft 0 kts 45°
2026-05-06 21:00 10.30034 123.97472 32 ft 10 kts 357°
2026-05-06 21:00 10.30083 123.97428 31 ft 13 kts 314°
2026-05-06 21:00 10.30144 123.97368 30 ft 10 kts 317°
2026-05-06 21:01 10.30206 123.97307 31 ft 12 kts 313°
2026-05-06 21:01 10.30254 123.97255 32 ft 10 kts 313°
2026-05-06 21:01 10.30307 123.97227 33 ft 7 kts 46°
2026-05-06 21:01 10.30311 123.97232 33 ft 0 kts 48°
2026-05-06 21:02 10.30415 123.97337 34 ft 67 kts 44°
2026-05-06 21:02 10.30884 123.97814 120 ft 110 kts 43°
2026-05-06 21:02 10.31499 123.98434 347 ft 141 kts 41°
2026-05-06 21:02 10.32280 123.99140 737 ft 156 kts 38°
2026-05-06 21:03 10.33117 123.99859 1151 ft 156 kts 40°
2026-05-06 21:03 10.33927 124.00585 1569 ft 156 kts 40°
2026-05-06 21:03 10.34771 124.01308 1985 ft 160 kts 40°
2026-05-06 21:03 10.35626 124.02027 2383 ft 159 kts 39°
2026-05-06 21:04 10.36520 124.02677 2775 ft 159 kts 28°
2026-05-06 21:04 10.37623 124.02927 3024 ft 171 kts 359°
2026-05-06 21:04 10.38752 124.02468 3212 ft 184 kts 325°
2026-05-06 21:04 10.39607 124.01503 3622 ft 182 kts 312°
2026-05-06 21:05 10.40431 124.00525 4018 ft 181 kts 320°
2026-05-06 21:05 10.41385 123.99723 4436 ft 176 kts 330°
2026-05-06 21:05 10.42375 123.99025 4839 ft 172 kts 330°
2026-05-06 21:05 10.43362 123.98320 5156 ft 175 kts 330°
2026-05-06 21:06 10.44345 123.97607 5450 ft 176 kts 330°
2026-05-06 21:06 10.45346 123.96882 5752 ft 177 kts 330°
2026-05-06 21:06 10.46340 123.96150 6042 ft 176 kts 329°
2026-05-06 21:06 10.47329 123.95412 6314 ft 176 kts 329°
2026-05-06 21:07 10.48318 123.94671 6545 ft 177 kts 328°
2026-05-06 21:07 10.49307 123.93924 6788 ft 177 kts 328°
2026-05-06 21:07 10.50309 123.93166 7015 ft 181 kts 329°
2026-05-06 21:07 10.51325 123.92403 7246 ft 181 kts 329°
2026-05-06 21:08 10.52343 123.91640 7469 ft 182 kts 329°
2026-05-06 21:08 10.53358 123.90879 7681 ft 182 kts 329°
2026-05-06 21:08 10.54398 123.90099 7783 ft 189 kts 329°
2026-05-06 21:08 10.55459 123.89304 7937 ft 190 kts 329°
2026-05-06 21:09 10.56537 123.88495 7984 ft 196 kts 329°
2026-05-06 21:09 10.57642 123.87663 8043 ft 199 kts 329°
2026-05-06 21:09 10.58767 123.86810 8032 ft 205 kts 326°
2026-05-06 21:09 10.59721 123.85718 8017 ft 210 kts 311°
2026-05-06 21:10 10.60595 123.84508 8020 ft 214 kts 310°
2026-05-06 21:10 10.61481 123.83272 8027 ft 219 kts 310°
2026-05-06 21:10 10.62379 123.82020 8026 ft 224 kts 310°
2026-05-06 21:10 10.63311 123.80727 8016 ft 228 kts 310°
2026-05-06 21:11 10.64254 123.79423 8020 ft 230 kts 310°
2026-05-06 21:11 10.65198 123.78109 8018 ft 231 kts 310°
2026-05-06 21:11 10.66147 123.76790 8017 ft 232 kts 310°
2026-05-06 21:11 10.67099 123.75466 8006 ft 232 kts 310°
2026-05-06 21:12 10.67728 123.74588 8016 ft 232 kts 310°
2026-05-06 21:12 10.68681 123.73265 8022 ft 232 kts 310°
2026-05-06 21:12 10.69636 123.71940 8022 ft 232 kts 310°
2026-05-06 21:12 10.70591 123.70613 8021 ft 232 kts 310°
2026-05-06 21:13 10.71868 123.68839 8021 ft 232 kts 310°
2026-05-06 21:13 10.72501 123.67962 8021 ft 232 kts 310°
2026-05-06 21:13 10.73453 123.66636 8024 ft 232 kts 310°
2026-05-06 21:13 10.74404 123.65311 8023 ft 232 kts 310°
2026-05-06 21:14 10.75357 123.63986 8022 ft 232 kts 310°
2026-05-06 21:14 10.76307 123.62665 8022 ft 231 kts 310°
2026-05-06 21:14 10.77258 123.61345 8021 ft 231 kts 310°
2026-05-06 21:14 10.78206 123.60026 8022 ft 231 kts 310°
2026-05-06 21:15 10.79154 123.58707 8020 ft 231 kts 310°
2026-05-06 21:15 10.80103 123.57387 8021 ft 231 kts 310°
2026-05-06 21:15 10.81051 123.56068 8023 ft 231 kts 310°
2026-05-06 21:15 10.82004 123.54744 8023 ft 232 kts 310°
2026-05-06 21:16 10.82953 123.53420 8019 ft 232 kts 310°
2026-05-06 21:16 10.83902 123.52090 8021 ft 232 kts 310°
2026-05-06 21:16 10.84851 123.50762 8020 ft 232 kts 310°
2026-05-06 21:16 10.85806 123.49441 8021 ft 231 kts 310°
2026-05-06 21:17 10.86758 123.48123 8024 ft 231 kts 310°
2026-05-06 21:17 10.87709 123.46803 8016 ft 231 kts 310°
2026-05-06 21:17 10.88658 123.45480 8017 ft 232 kts 310°
2026-05-06 21:17 10.89609 123.44153 8018 ft 232 kts 310°
2026-05-06 21:18 10.90561 123.42828 8018 ft 232 kts 310°
2026-05-06 21:18 10.91502 123.41520 8020 ft 232 kts 310°
2026-05-06 21:18 10.92481 123.40223 8010 ft 231 kts 309°
2026-05-06 21:18 10.93062 123.38707 8002 ft 233 kts 281°
2026-05-06 21:19 10.92936 123.37075 8025 ft 235 kts 253°
2026-05-06 21:19 10.92154 123.35625 8041 ft 235 kts 231°
2026-05-06 21:19 10.91151 123.34301 8015 ft 237 kts 234°
2026-05-06 21:19 10.90342 123.32842 8032 ft 238 kts 244°
2026-05-06 21:20 10.89708 123.31282 8017 ft 240 kts 248°
2026-05-06 21:20 10.89095 123.29705 8016 ft 240 kts 247°
2026-05-06 21:20 10.88448 123.28140 8019 ft 240 kts 246°
2026-05-06 21:20 10.87793 123.26584 8004 ft 238 kts 246°
2026-05-06 21:21 10.87143 123.25034 7874 ft 237 kts 246°
2026-05-06 21:21 10.86502 123.23498 7771 ft 235 kts 246°
2026-05-06 21:21 10.85864 123.21971 7652 ft 234 kts 246°
2026-05-06 21:21 10.85231 123.20457 7522 ft 233 kts 246°
2026-05-06 21:22 10.84598 123.18937 7390 ft 233 kts 246°
2026-05-06 21:22 10.83965 123.17419 7267 ft 233 kts 246°
2026-05-06 21:22 10.83330 123.15909 7148 ft 232 kts 246°
2026-05-06 21:22 10.82695 123.14402 7022 ft 232 kts 247°
2026-05-06 21:23 10.82069 123.12893 6894 ft 231 kts 247°
2026-05-06 21:23 10.81449 123.11404 6789 ft 231 kts 247°
2026-05-06 21:23 10.80818 123.09901 6676 ft 231 kts 247°
2026-05-06 21:23 10.80181 123.08377 6558 ft 231 kts 247°
2026-05-06 21:24 10.79552 123.06871 6450 ft 230 kts 247°
2026-05-06 21:24 10.78933 123.05393 6351 ft 230 kts 247°
2026-05-06 21:24 10.78246 123.03922 6237 ft 231 kts 237°
2026-05-06 21:24 10.77170 123.02720 6130 ft 231 kts 216°
2026-05-06 21:25 10.75776 123.01941 6079 ft 228 kts 196°
2026-05-06 21:25 10.74240 123.01628 6029 ft 223 kts 184°
2026-05-06 21:25 10.72713 123.01426 5995 ft 220 kts 183°
2026-05-06 21:25 10.71198 123.01245 5984 ft 218 kts 182°
2026-05-06 21:26 10.69696 123.01066 5987 ft 217 kts 183°
2026-05-06 21:26 10.68194 123.00880 5989 ft 218 kts 183°
2026-05-06 21:26 10.66691 123.00691 5994 ft 217 kts 183°
2026-05-06 21:26 10.65200 123.00505 5992 ft 216 kts 183°
2026-05-06 21:27 10.63713 123.00318 5970 ft 215 kts 183°
2026-05-06 21:27 10.62234 123.00134 5869 ft 214 kts 183°
2026-05-06 21:27 10.60760 122.99951 5745 ft 213 kts 183°
2026-05-06 21:27 10.59294 122.99768 5619 ft 212 kts 183°
2026-05-06 21:28 10.57830 122.99585 5492 ft 211 kts 183°
2026-05-06 21:28 10.56414 122.99215 5361 ft 212 kts 202°
2026-05-06 21:28 10.55224 122.98370 5267 ft 213 kts 223°
2026-05-06 21:28 10.54383 122.97142 5173 ft 211 kts 245°
2026-05-06 21:29 10.54018 122.95713 5052 ft 210 kts 267°
2026-05-06 21:29 10.54058 122.94717 4979 ft 208 kts 281°
2026-05-06 21:29 10.55667 122.92016 4740 ft 199 kts 327°
2026-05-06 21:30 10.56874 122.91383 4635 ft 194 kts 346°
2026-05-06 21:30 10.58190 122.91180 4527 ft 190 kts
2026-05-06 21:30 10.59481 122.91323 4462 ft 184 kts 15°
2026-05-06 21:30 10.60685 122.91700 4396 ft 180 kts 27°
2026-05-06 21:31 10.61784 122.92292 4292 ft 178 kts 33°
2026-05-06 21:31 10.62841 122.92933 4202 ft 176 kts 32°
2026-05-06 21:31 10.63884 122.93526 4082 ft 168 kts 32°
2026-05-06 21:31 10.64889 122.94121 3868 ft 167 kts 34°
2026-05-06 21:32 10.65867 122.94745 3629 ft 167 kts 35°
2026-05-06 21:32 10.67801 122.95968 3267 ft 160 kts 34°
2026-05-06 21:32 10.68752 122.96537 3028 ft 157 kts 33°
2026-05-06 21:33 10.69699 122.97071 2818 ft 155 kts 31°
2026-05-06 21:33 10.70562 122.97551 2487 ft 133 kts 32°
2026-05-06 21:33 10.71315 122.98037 2133 ft 125 kts 36°
2026-05-06 21:33 10.72005 122.98542 1730 ft 119 kts 36°
2026-05-06 21:34 10.72710 122.98995 1331 ft 118 kts 30°
2026-05-06 21:34 10.73407 122.99401 1094 ft 113 kts 28°
2026-05-06 21:34 10.74104 122.99785 850 ft 112 kts 28°
2026-05-06 21:34 10.74768 123.00169 638 ft 110 kts 30°
2026-05-06 21:35 10.75426 123.00567 429 ft 110 kts 32°
2026-05-06 21:35 10.76061 123.00955 265 ft 105 kts 32°
2026-05-06 21:35 10.76658 123.01315 149 ft 92 kts 32°
2026-05-06 21:35 10.77118 123.01585 90 ft 55 kts 30°
2026-05-06 21:36 10.77366 123.01732 88 ft 31 kts 30°
2026-05-06 21:36 10.77519 123.01823 89 ft 22 kts 30°
2026-05-06 21:36 10.77622 123.01882 89 ft 7 kts 21°
2026-05-06 21:36 10.77686 123.01862 90 ft 10 kts 306°
2026-05-06 21:37 10.77726 123.01793 89 ft 12 kts 300°
2026-05-06 21:37 10.77752 123.01719 88 ft 13 kts 256°
2026-05-06 21:37 10.77656 123.01644 88 ft 23 kts 212°
2026-05-06 21:37 10.77509 123.01558 90 ft 22 kts 208°
2026-05-06 21:38 10.77402 123.01503 89 ft 15 kts 195°
2026-05-06 21:38 10.77350 123.01477 86 ft 12 kts 211°
2026-05-06 21:38 10.77304 123.01450 81 ft 8 kts 209°
2026-05-06 21:38 10.77251 123.01416 81 ft 5 kts 240°
2026-05-06 21:39 10.77279 123.01374 81 ft 6 kts 359°
2026-05-06 21:39 10.77286 123.01377 81 ft 0 kts 31°